Weather History for Burnet, TX

Change the Weather History Date:

Sunday, July 20, 2014

  Actual Average Record
Temperature  
Mean Temperature 82 °F -  
Max Temperature 93 °F 92 °F 102 °F (2000)
Min Temperature 71 °F 70 °F 69 °F (2004)
Cooling Degree Days 17    
Growing Degree Days 32 (Base 50)    
Moisture  
Dew Point 70 °F    
Average Humidity 74    
Maximum Humidity 91    
Minimum Humidity 47    
Precipitation  
Precipitation 0.00 in - - ()
Sea Level Pressure  
Sea Level Pressure 29.99 in    
Wind  
Wind Speed 4 mph (SE)    
Max Wind Speed 9 mph    
Max Gust Speed 16 mph    
Visibility 9 miles    
Events      
Averages and records for this station are not official NWS values.
T = Trace of Precipitation, MM = Missing Value Source: NWS Daily Summary

Daily Weather History Graph

Daily Weather History Graph

Search for Another Location

Airport:

Trip Planner

Search our weather history database for the weather conditions in past years. The results will help you decide how hot, cold, wet, or windy it might be!

Date:

Astronomy

Jul. 20, 2014 Rise Set
Actual Time 6:43 AM CDT 8:35 PM CDT
Civil Twilight 6:16 AM CDT 9:01 PM CDT
Nautical Twilight 5:43 AM CDT 9:34 PM CDT
Astronomical Twilight 5:09 AM CDT 10:08 PM CDT
Moon 1:47 AM CDT (7/20) 3:25 PM CDT (7/20)
Length of Visible Light 14h 45m
Length of Day
13h 51m
Waning Crescent, 33% of the Moon is Illuminated
Jul 20
Waning Crescent
Jul 26
New
Aug 3
First Quarter
Aug 10
Full
Aug 17
Last Quarter

Hourly Weather History & Observations

Time (CDT) Temp. Heat Index Dew Point Humidity Pressure Visibility Wind Dir Wind Speed Gust Speed Precip Events Conditions
12:53 AM 73.0 °F - 66.9 °F 81% 30.00 in 9.0 mi SE 3.5 mph - N/A   Clear
1:53 AM 72.0 °F - 66.9 °F 84% 30.01 in 9.0 mi Calm Calm - N/A   Scattered Clouds
2:53 AM 72.0 °F - 66.9 °F 84% 29.99 in 9.0 mi ESE 3.5 mph - N/A   Scattered Clouds
3:53 AM 72.0 °F - 68.0 °F 87% 29.99 in 9.0 mi SE 3.5 mph - N/A   Mostly Cloudy
4:10 AM 72.0 °F - 68.0 °F 87% 30.04 in 9.0 mi SE 3.5 mph - N/A   Mostly Cloudy
4:42 AM 71.1 °F - 68.0 °F 90% 30.04 in 8.0 mi Calm Calm - N/A   Mostly Cloudy
4:53 AM 71.1 °F - 68.0 °F 90% 29.98 in 8.0 mi Calm Calm - N/A   Partly Cloudy
5:46 AM 71.1 °F - 68.0 °F 90% 30.03 in 8.0 mi SE 3.5 mph - N/A   Mostly Cloudy
5:53 AM 71.1 °F - 68.0 °F 90% 29.98 in 8.0 mi Calm Calm - N/A   Mostly Cloudy
6:10 AM 72.0 °F - 68.0 °F 87% 30.04 in 8.0 mi Variable 3.5 mph - N/A   Overcast
6:53 AM 72.0 °F - 68.0 °F 87% 30.00 in 9.0 mi South 3.5 mph - N/A   Overcast
7:53 AM 73.9 °F - 70.0 °F 87% 30.00 in 6.0 mi SSE 3.5 mph - N/A   Overcast
8:53 AM 73.9 °F - 71.1 °F 91% 30.02 in 5.0 mi SSE 6.9 mph - N/A   Overcast
9:33 AM 75.0 °F - 71.1 °F 87% 30.07 in 6.0 mi South 8.1 mph - N/A   Overcast
9:53 AM 77.0 °F - 71.1 °F 82% 30.03 in 7.0 mi South 6.9 mph - N/A   Overcast
10:18 AM 78.1 °F - 72.0 °F 81% 30.07 in 7.0 mi South 5.8 mph - N/A   Overcast
10:50 AM 78.8 °F - 71.6 °F 78% 30.07 in 7.0 mi Calm Calm - N/A   Mostly Cloudy
10:53 AM 80.1 °F 83.8 °F 72.0 °F 76% 30.02 in 7.0 mi SW 3.5 mph - N/A   Mostly Cloudy
11:05 AM 81.0 °F 85.2 °F 72.0 °F 74% 30.07 in 8.0 mi Variable 4.6 mph - N/A   Partly Cloudy
11:53 AM 84.9 °F 90.7 °F 72.0 °F 65% 30.00 in 9.0 mi SSE 6.9 mph - N/A   Clear
12:53 PM 89.1 °F 97.0 °F 73.0 °F 59% 29.99 in 10.0 mi Variable 5.8 mph - N/A   Scattered Clouds
1:53 PM 91.0 °F 97.6 °F 71.1 °F 52% 29.97 in 10.0 mi North - - N/A   Clear
2:53 PM 91.9 °F 97.4 °F 70.0 °F 48% 29.94 in 10.0 mi SSE 5.8 mph - N/A   Partly Cloudy
3:53 PM 93.0 °F 99.0 °F 70.0 °F 47% 29.92 in 10.0 mi South 9.2 mph 16.1 mph N/A   Mostly Cloudy
4:53 PM 93.0 °F 99.0 °F 70.0 °F 47% 29.91 in 10.0 mi SSE 9.2 mph - N/A   Scattered Clouds
5:53 PM 91.9 °F 97.4 °F 70.0 °F 48% 29.90 in 10.0 mi ESE 8.1 mph - N/A   Partly Cloudy
6:53 PM 91.0 °F 96.6 °F 70.0 °F 50% 29.90 in 10.0 mi ESE 8.1 mph - N/A   Clear
7:53 PM 89.1 °F 95.0 °F 71.1 °F 55% 29.90 in 10.0 mi ESE 6.9 mph - N/A   Clear
8:53 PM 86.0 °F 91.5 °F 71.1 °F 61% 29.92 in 10.0 mi East 5.8 mph - N/A   Clear
9:53 PM 82.9 °F 88.0 °F 72.0 °F 69% 29.94 in 10.0 mi East 4.6 mph - N/A   Clear
10:53 PM 82.0 °F 87.4 °F 73.0 °F 74% 29.96 in 10.0 mi ESE 6.9 mph - N/A   Clear
11:53 PM 81.0 °F 85.8 °F 73.0 °F 77% 29.97 in 10.0 mi East 5.8 mph - N/A   Clear